| time (UTC) | temp F | wind direction | speed MPH | gust MPH | rain 1hr in | rain 24hr in | rain mn in | humidity % | barometer mb |
| 20260509202004 | 58 | 325 | 6.0 | 25.0 | 0.00 | 0.00 | 0.00 | 30 | 1004.9 |
| 20260509201004 | 60 | 347 | 3.0 | 14.0 | 0.00 | 0.00 | 0.00 | 28 | 1004.5 |
| 20260509200004 | 58 | 353 | 5.0 | 23.0 | 0.00 | 0.00 | 0.00 | 29 | 1004.5 |
| 20260509195004 | 58 | 281 | 11.0 | 16.0 | 0.00 | 0.00 | 0.00 | 28 | 1003.9 |
| 20260509194003 | 57 | 323 | 6.0 | 15.0 | 0.00 | 0.00 | 0.00 | 30 | 1004.1 |
| 20260509193004 | 57 | 323 | 4.0 | 16.0 | 0.00 | 0.00 | 0.00 | 29 | 1003.7 |
| 20260509192004 | 57 | 291 | 7.0 | 21.0 | 0.00 | 0.00 | 0.00 | 30 | 1003.5 |
| 20260509191004 | 59 | 324 | 8.0 | 16.0 | 0.00 | 0.00 | 0.00 | 29 | 1003.5 |
| 20260509190004 | 56 | 354 | 7.0 | 17.0 | 0.00 | 0.00 | 0.00 | 31 | 1003.4 |
| 20260509185004 | 57 | 308 | 5.0 | 16.0 | 0.00 | 0.00 | 0.00 | 30 | 1003.2 |
| 20260509181004 | 58 | 327 | 3.0 | 13.0 | 0.00 | 0.00 | 0.00 | 32 | 1002.7 |
| 20260509180004 | 56 | 331 | 3.0 | 14.0 | 0.00 | 0.00 | 0.00 | 34 | 1002.9 |
| 20260509175003 | 59 | 355 | 2.0 | 18.0 | 0.00 | 0.00 | 0.00 | 31 | 1002.6 |
| 20260509174004 | 57 | 294 | 9.0 | 16.0 | 0.00 | 0.00 | 0.00 | 32 | 1002.8 |
| 20260509173003 | 57 | 282 | 3.0 | 15.0 | 0.00 | 0.00 | 0.00 | 32 | 1002.3 |
| 20260509172003 | 58 | 330 | 5.0 | 13.0 | 0.00 | 0.00 | 0.00 | 31 | 1002.1 |
| 20260509171004 | 57 | 299 | 3.0 | 17.0 | 0.00 | 0.00 | 0.00 | 32 | 1002.2 |
| 20260509165004 | 58 | 345 | 3.0 | 9.0 | 0.00 | 0.00 | 0.00 | 31 | 1001.8 |
| 20260509164004 | 55 | 337 | 5.0 | 12.0 | 0.00 | 0.00 | 0.00 | 34 | 1001.8 |
| 20260509163004 | 56 | 305 | 2.0 | 15.0 | 0.00 | 0.00 | 0.00 | 33 | 1001.8 |
| 20260509162003 | 55 | 341 | 5.0 | 16.0 | 0.00 | 0.00 | 0.00 | 34 | 1001.7 |
| 20260509161004 | 55 | 297 | 6.0 | 12.0 | 0.00 | 0.00 | 0.00 | 34 | 1001.5 |
| 20260509160003 | 55 | 355 | 2.0 | 17.0 | 0.00 | 0.00 | 0.00 | 35 | 1001.6 |
| 20260509155004 | 56 | 285 | 3.0 | 10.0 | 0.00 | 0.00 | 0.00 | 34 | 1001.3 |
| 20260509154004 | 56 | 274 | 7.0 | 21.0 | 0.00 | 0.00 | 0.00 | 33 | 1001.2 |
| 20260509153004 | 57 | 288 | 5.0 | 10.0 | 0.00 | 0.00 | 0.00 | 32 | 1000.9 |
| 20260509152004 | 57 | 303 | 4.0 | 17.0 | 0.00 | 0.00 | 0.00 | 31 | 1000.7 |
| 20260509151004 | 57 | 297 | 4.0 | 10.0 | 0.00 | 0.00 | 0.00 | 33 | 1000.5 |
| 20260509150004 | 56 | 323 | 4.0 | 14.0 | 0.00 | 0.00 | 0.00 | 34 | 1000.5 |
| 20260509145003 | 56 | 293 | 4.0 | 17.0 | 0.00 | 0.00 | 0.00 | 35 | 1000.8 |
| 20260509144004 | 55 | 288 | 3.0 | 13.0 | 0.00 | 0.00 | 0.00 | 36 | 1000.9 |
| 20260509143004 | 54 | 330 | 4.0 | 13.0 | 0.00 | 0.00 | 0.00 | 37 | 1000.6 |
| 20260509141003 | 53 | 348 | 2.0 | 14.0 | 0.00 | 0.00 | 0.00 | 40 | 1000.6 |
| 20260509140005 | 53 | 314 | 3.0 | 12.0 | 0.00 | 0.00 | 0.00 | 40 | 1000.4 |
| 20260509134004 | 54 | 295 | 2.0 | 7.0 | 0.00 | 0.00 | 0.00 | 41 | 1000.2 |
| 20260509133004 | 53 | 282 | 3.0 | 8.0 | 0.00 | 0.00 | 0.00 | 42 | 1000.2 |
| 20260509132003 | 53 | 287 | 3.0 | 7.0 | 0.00 | 0.00 | 0.00 | 42 | 1000.3 |
| 20260509131004 | 52 | 293 | 2.0 | 10.0 | 0.00 | 0.00 | 0.00 | 43 | 1000.3 |
| 20260509130004 | 52 | 277 | 4.0 | 7.0 | 0.00 | 0.00 | 0.00 | 43 | 1000.2 |
| 20260509125004 | 52 | 298 | 3.0 | 10.0 | 0.00 | 0.00 | 0.00 | 43 | 1000.4 |
| 20260509124005 | 52 | 291 | 3.0 | 9.0 | 0.00 | 0.00 | 0.00 | 44 | 1000.3 |
| 20260509123003 | 52 | 309 | 3.0 | 7.0 | 0.00 | 0.00 | 0.00 | 44 | 1000.0 |
| 20260509122004 | 52 | 349 | 3.0 | 13.0 | 0.00 | 0.00 | 0.00 | 44 | 1000.1 |
| 20260509121004 | 51 | 285 | 3.0 | 12.0 | 0.00 | 0.00 | 0.00 | 46 | 999.9 |
| 20260509120004 | 51 | 333 | 2.0 | 10.0 | 0.00 | 0.00 | 0.00 | 46 | 999.7 |
| 20260509115004 | 51 | 16 | 2.0 | 8.0 | 0.00 | 0.00 | 0.00 | 46 | 999.6 |
| 20260509114003 | 51 | 344 | 4.0 | 8.0 | 0.00 | 0.00 | 0.00 | 46 | 999.5 |
| 20260509113004 | 51 | 346 | 3.0 | 7.0 | 0.00 | 0.00 | 0.00 | 47 | 999.1 |
| 20260509112004 | 50 | 332 | 2.0 | 9.0 | 0.00 | 0.00 | 0.00 | 47 | 998.9 |
| 20260509111004 | 50 | 335 | 2.0 | 8.0 | 0.00 | 0.00 | 0.00 | 47 | 998.7 |
| 20260509110004 | 50 | 330 | 3.0 | 7.0 | 0.00 | 0.00 | 0.00 | 47 | 998.4 |
| 20260509105004 | 51 | 318 | 3.0 | 6.0 | 0.00 | 0.00 | 0.00 | 47 | 998.5 |
| 20260509104004 | 51 | 338 | 3.0 | 9.0 | 0.00 | 0.00 | 0.00 | 47 | 998.5 |
| 20260509102004 | 51 | 339 | 3.0 | 9.0 | 0.00 | 0.00 | 0.00 | 48 | 998.4 |
| 20260509101004 | 51 | 329 | 2.0 | 10.0 | 0.00 | 0.00 | 0.00 | 50 | 998.8 |
| 20260509093003 | 47 | 325 | 1.0 | 2.0 | 0.00 | 0.00 | 0.00 | 59 | 998.4 |
| 20260509092004 | 47 | 331 | 1.0 | 2.0 | 0.00 | 0.00 | 0.00 | 60 | 998.6 |
| 20260509091005 | 48 | 350 | 2.0 | 5.0 | 0.00 | 0.00 | 0.00 | 57 | 998.6 |
| 20260509090004 | 48 | 269 | 2.0 | 5.0 | 0.00 | 0.00 | 0.00 | 57 | 998.7 |
| 20260509085004 | 46 | 28 | 0.0 | 2.0 | 0.00 | 0.00 | 0.00 | 63 | 998.4 |
| 20260509084004 | 45 | 58 | 0.0 | 2.0 | 0.00 | 0.00 | 0.00 | 66 | 998.6 |
| 20260509083004 | 45 | 329 | 0.0 | 2.0 | 0.00 | 0.00 | 0.00 | 65 | 998.8 |
| 20260509082004 | 45 | 25 | 0.0 | 2.0 | 0.00 | 0.00 | 0.00 | 65 | 998.7 |
| 20260509081004 | 44 | 336 | 0.0 | 2.0 | 0.00 | 0.00 | 0.00 | 66 | 998.6 |
| 20260509080003 | 44 | 55 | 0.0 | 1.0 | 0.00 | 0.00 | 0.00 | 67 | 998.6 |
| 20260509075004 | 44 | 96 | 0.0 | 1.0 | 0.00 | 0.00 | 0.00 | 68 | 998.7 |
| 20260509074004 | 44 | 57 | 0.0 | 1.0 | 0.00 | 0.00 | 0.00 | 67 | 998.8 |
| 20260509073004 | 43 | 304 | 0.0 | 1.0 | 0.00 | 0.00 | 0.00 | 66 | 998.9 |
| 20260509072004 | 43 | 87 | 0.0 | 2.0 | 0.00 | 0.00 | 0.00 | 67 | 999.1 |
| 20260509071004 | 43 | 32 | 0.0 | 1.0 | 0.00 | 0.00 | 0.00 | 65 | 999.1 |
| 20260509070004 | 43 | 355 | 0.0 | 1.0 | 0.00 | 0.00 | 0.00 | 64 | 999.3 |
| 20260509063004 | 44 | 37 | 0.0 | 1.0 | 0.00 | 0.00 | 0.00 | 61 | 999.7 |
| 20260509062004 | 44 | 345 | 0.0 | 1.0 | 0.00 | 0.00 | 0.00 | 62 | 999.6 |
| 20260509060004 | 45 | 69 | 0.0 | 2.0 | 0.00 | 0.00 | 0.00 | 61 | 999.9 |
| 20260509053004 | 46 | 34 | 0.0 | 1.0 | 0.00 | 0.00 | 0.00 | 58 | 1000.2 |
| 20260509052003 | 46 | 11 | 0.0 | 1.0 | 0.00 | 0.00 | 0.00 | 60 | 1000.5 |
| 20260509051004 | 45 | 319 | 0.0 | 1.0 | 0.00 | 0.00 | 0.00 | 57 | 1000.6 |
| 20260509050004 | 45 | 339 | 0.0 | 1.0 | 0.00 | 0.00 | 0.00 | 58 | 1000.6 |
| 20260509045004 | 45 | 12 | 0.0 | 1.0 | 0.00 | 0.00 | 0.00 | 59 | 1000.8 |
| 20260509044004 | 45 | 4 | 0.0 | 1.0 | 0.00 | 0.00 | 0.00 | 59 | 1000.8 |
| 20260509043004 | 45 | 327 | 0.0 | 1.0 | 0.00 | 0.00 | 0.00 | 59 | 1000.9 |
| 20260509042004 | 45 | 353 | 0.0 | 1.0 | 0.00 | 0.00 | 0.00 | 60 | 1001.2 |
| 20260509041003 | 46 | 319 | 0.0 | 1.0 | 0.00 | 0.00 | 0.00 | 58 | 1001.1 |
| 20260509040004 | 46 | 299 | 0.0 | 1.0 | 0.00 | 0.00 | 0.00 | 56 | 1001.2 |
| 20260509035004 | 47 | 317 | 0.0 | 1.0 | 0.00 | 0.00 | 0.00 | 55 | 1001.4 |
| 20260509034004 | 47 | 22 | 0.0 | 1.0 | 0.00 | 0.00 | 0.00 | 54 | 1001.7 |
| 20260509031005 | 47 | 312 | 0.0 | 1.0 | 0.00 | 0.00 | 0.00 | 51 | 1001.8 |
| 20260509030003 | 48 | 310 | 0.0 | 1.0 | 0.00 | 0.00 | 0.00 | 50 | 1001.9 |
| 20260509025004 | 48 | 334 | 1.0 | 1.0 | 0.00 | 0.00 | 0.00 | 50 | 1002.1 |
| 20260509024004 | 48 | 32 | 0.0 | 1.0 | 0.00 | 0.00 | 0.00 | 49 | 1002.0 |
| 20260509023004 | 49 | 324 | 0.0 | 1.0 | 0.00 | 0.00 | 0.00 | 49 | 1002.1 |
| 20260509022003 | 50 | 324 | 1.0 | 1.0 | 0.00 | 0.00 | 0.00 | 47 | 1002.1 |
| 20260509020004 | 53 | 32 | 0.0 | 2.0 | 0.00 | 0.00 | 0.00 | 44 | 1002.4 |
| 20260509015004 | 54 | 309 | 0.0 | 2.0 | 0.00 | 0.00 | 0.00 | 42 | 1002.4 |
| 20260509014004 | 56 | 345 | 1.0 | 2.0 | 0.00 | 0.00 | 0.00 | 39 | 1002.3 |
| 20260509012004 | 59 | 333 | 1.0 | 3.0 | 0.00 | 0.00 | 0.00 | 36 | 1002.3 |
| 20260509011003 | 59 | 338 | 1.0 | 5.0 | 0.00 | 0.00 | 0.00 | 35 | 1002.2 |
| 20260509010003 | 59 | 41 | 0.0 | 2.0 | 0.00 | 0.00 | 0.00 | 35 | 1002.5 |
| 20260509005004 | 60 | 276 | 2.0 | 8.0 | 0.00 | 0.00 | 0.00 | 33 | 1002.5 |
| 20260509004004 | 60 | 264 | 1.0 | 7.0 | 0.00 | 0.00 | 0.00 | 33 | 1002.6 |
| 20260509003003 | 61 | 288 | 3.0 | 8.0 | 0.00 | 0.00 | 0.00 | 32 | 1002.6 |
| 20260509002004 | 60 | 17 | 1.0 | 2.0 | 0.00 | 0.00 | 0.00 | 34 | 1002.6 |
| 20260509001004 | 61 | 268 | 1.0 | 2.0 | 0.00 | 0.00 | 0.00 | 32 | 1002.7 |
| 20260509000004 | 61 | 304 | 2.0 | 3.0 | 0.00 | 0.00 | 0.00 | 31 | 1002.8 |
| 20260508235003 | 61 | 342 | 1.0 | 6.0 | 0.00 | 0.00 | 0.00 | 32 | 1002.6 |
| 20260508234003 | 61 | 272 | 3.0 | 7.0 | 0.00 | 0.00 | 0.00 | 31 | 1002.8 |
| 20260508231003 | 62 | 261 | 2.0 | 9.0 | 0.00 | 0.00 | 0.00 | 31 | 1003.1 |
| 20260508230004 | 62 | 282 | 4.0 | 9.0 | 0.00 | 0.00 | 0.00 | 30 | 1003.2 |
| 20260508225003 | 62 | 233 | 3.0 | 13.0 | 0.00 | 0.00 | 0.00 | 30 | 1003.0 |
| 20260508224004 | 62 | 263 | 5.0 | 10.0 | 0.00 | 0.00 | 0.00 | 29 | 1003.2 |
| 20260508221003 | 62 | 288 | 6.0 | 10.0 | 0.00 | 0.00 | 0.00 | 29 | 1003.3 |
| 20260508215004 | 62 | 290 | 6.0 | 13.0 | 0.00 | 0.00 | 0.00 | 29 | 1003.5 |
| 20260508214004 | 62 | 292 | 4.0 | 20.0 | 0.00 | 0.00 | 0.00 | 30 | 1003.6 |
| 20260508213004 | 62 | 280 | 5.0 | 13.0 | 0.00 | 0.00 | 0.00 | 29 | 1003.6 |
| 20260508212004 | 62 | 329 | 6.0 | 21.0 | 0.00 | 0.00 | 0.00 | 29 | 1003.5 |
| 20260508211004 | 62 | 280 | 6.0 | 10.0 | 0.00 | 0.00 | 0.00 | 30 | 1003.7 |
| 20260508210004 | 62 | 325 | 4.0 | 7.0 | 0.00 | 0.00 | 0.00 | 30 | 1003.7 |
| 20260508204004 | 62 | 292 | 5.0 | 12.0 | 0.00 | 0.00 | 0.00 | 30 | 1003.9 |
| 20260508203004 | 62 | 235 | 3.0 | 15.0 | 0.00 | 0.00 | 0.00 | 30 | 1004.0 |